Simultaneous Nadir Overpasses (SNOs) Predictions

Prediction of SNOs between GOES-16 and NOAA-20 Satellite Orbit:

Table of predicted SNOs for the next 14.0 days since TLE Epoch: 7/25/2025
Index Date Time (GOES-16) GOES-16 Lat,Lon NOAA-20 Lat,Lon Distance(km) Time Diff (sec)
1 07/26/2025 20:26:52 0.03,-104.73 -0.27,-105.97 142.20 80
2 07/27/2025 20:10:47 0.02,-104.73 0.75,-101.44 374.76 80
3 07/29/2025 08:32:35 -0.03,-104.72 0.45,-106.70 226.64 80
4 07/30/2025 08:11:10 -0.02,-104.72 -0.57,-102.17 290.32 80
5 07/31/2025 20:33:08 0.03,-104.75 -0.58,-107.48 311.95 80
6 08/01/2025 20:17:03 0.03,-104.75 0.45,-102.95 205.02 80
7 08/03/2025 08:38:50 -0.04,-104.74 0.74,-108.22 396.32 80
8 08/04/2025 08:17:26 -0.04,-104.74 -0.28,-103.69 120.29 80
9 08/05/2025 20:39:22 0.04,-104.75 -0.92,-108.99 482.82 80
10 08/06/2025 20:23:18 0.04,-104.75 0.10,-104.46 33.89 80
